Time,TemperatureF,DewpointF,PressureIn,WindDirection,WindDirectionDegrees,WindSpeedMPH,WindSpeedGustMPH,Humidity,HourlyPrecipIn,Conditions,Clouds,dailyrainin,SolarRadiationWatts/m^2,SoftwareType,DateUTC
2013-09-07 00:11:00,72.8,68.0,30.08,North,9,0.0,-999.0,84,-99.99,,,0.00,0,weatherlink.com 1.10,2013-09-07 05:11:00,
2013-09-07 00:26:00,72.8,68.0,30.08,North,9,0.0,-999.0,84,-99.99,,,0.00,0,weatherlink.com 1.10,2013-09-07 05:26:00,
2013-09-07 00:41:00,72.6,69.0,30.08,North,9,0.0,-999.0,88,-99.99,,,0.00,0,weatherlink.com 1.10,2013-09-07 05:41:00,
2013-09-07 00:56:00,72.0,69.0,30.09,North,9,0.0,-999.0,89,-99.99,,,0.00,0,weatherlink.com 1.10,2013-09-07 05:56:00,
2013-09-07 01:11:00,71.5,68.0,30.09,North,9,0.0,-999.0,89,-99.99,,,0.00,0,weatherlink.com 1.10,2013-09-07 06:11:00,
2013-09-07 01:26:00,71.8,68.0,30.08,North,9,0.0,-999.0,88,-99.99,,,0.00,0,weatherlink.com 1.10,2013-09-07 06:26:00,
2013-09-07 01:41:00,71.8,68.0,30.08,North,9,0.0,-999.0,87,-99.99,,,0.00,0,weatherlink.com 1.10,2013-09-07 06:41:00,
2013-09-07 01:56:00,72.0,68.0,30.09,North,9,0.0,-999.0,86,-99.99,,,0.00,0,weatherlink.com 1.10,2013-09-07 06:56:00,
2013-09-07 02:11:00,72.0,68.0,30.08,North,9,0.0,-999.0,87,-99.99,,,0.00,0,weatherlink.com 1.10,2013-09-07 07:11:00,
2013-09-07 02:26:00,71.8,68.0,30.07,North,9,0.0,-999.0,87,-99.99,,,0.00,0,weatherlink.com 1.10,2013-09-07 07:26:00,
2013-09-07 02:41:00,71.6,68.0,30.09,North,9,0.0,-999.0,87,-99.99,,,0.00,0,weatherlink.com 1.10,2013-09-07 07:41:00,
2013-09-07 02:56:00,71.1,67.0,30.09,North,9,0.0,-999.0,88,-99.99,,,0.00,0,weatherlink.com 1.10,2013-09-07 07:56:00,
2013-09-07 03:11:00,70.8,68.0,30.08,North,9,0.0,-999.0,90,-99.99,,,0.00,0,weatherlink.com 1.10,2013-09-07 08:11:00,
2013-09-07 03:26:00,70.6,68.0,30.08,North,9,0.0,-999.0,92,-99.99,,,0.00,0,weatherlink.com 1.10,2013-09-07 08:26:00,
2013-09-07 03:41:00,70.1,68.0,30.08,North,9,0.0,-999.0,93,-99.99,,,0.00,0,weatherlink.com 1.10,2013-09-07 08:41:00,
2013-09-07 03:56:00,69.6,68.0,30.08,North,9,0.0,-999.0,93,-99.99,,,0.00,0,weatherlink.com 1.10,2013-09-07 08:56:00,
2013-09-07 04:11:00,69.3,68.0,30.08,North,9,0.0,-999.0,94,-99.99,,,0.00,0,weatherlink.com 1.10,2013-09-07 09:11:00,
2013-09-07 04:27:00,69.4,68.0,30.09,North,9,0.0,-999.0,94,-99.99,,,0.00,0,weatherlink.com 1.10,2013-09-07 09:27:00,
2013-09-07 04:42:00,69.2,68.0,30.08,North,9,0.0,-999.0,95,-99.99,,,0.00,0,weatherlink.com 1.10,2013-09-07 09:42:00,
2013-09-07 04:57:00,69.0,67.0,30.09,North,9,0.0,-999.0,94,-99.99,,,0.00,0,weatherlink.com 1.10,2013-09-07 09:57:00,
2013-09-07 05:12:00,68.5,67.0,30.09,North,9,0.0,-999.0,95,-99.99,,,0.00,0,weatherlink.com 1.10,2013-09-07 10:12:00,
2013-09-07 05:27:00,68.3,67.0,30.09,North,9,0.0,-999.0,95,-99.99,,,0.00,0,weatherlink.com 1.10,2013-09-07 10:27:00,
2013-09-07 05:42:00,68.0,67.0,30.09,North,9,0.0,-999.0,95,-99.99,,,0.00,0,weatherlink.com 1.10,2013-09-07 10:42:00,
2013-09-07 05:57:00,67.7,66.0,30.09,North,9,0.0,-999.0,95,-99.99,,,0.00,0,weatherlink.com 1.10,2013-09-07 10:57:00,
2013-09-07 06:12:00,67.7,67.0,30.09,North,9,0.0,-999.0,96,-99.99,,,0.00,0,weatherlink.com 1.10,2013-09-07 11:12:00,
2013-09-07 06:27:00,67.5,66.0,30.09,North,9,0.0,-999.0,96,-99.99,,,0.00,0,weatherlink.com 1.10,2013-09-07 11:27:00,
2013-09-07 06:42:00,67.6,67.0,30.09,North,9,0.0,-999.0,96,-99.99,,,0.00,0,weatherlink.com 1.10,2013-09-07 11:42:00,
2013-09-07 06:57:00,67.5,66.0,30.10,North,9,0.0,-999.0,96,-99.99,,,0.00,7,weatherlink.com 1.10,2013-09-07 11:57:00,
2013-09-07 07:12:00,67.5,66.0,30.10,North,9,0.0,-999.0,96,-99.99,,,0.00,21,weatherlink.com 1.10,2013-09-07 12:12:00,
2013-09-07 07:27:00,67.5,66.0,30.10,North,9,0.0,-999.0,96,-99.99,,,0.00,33,weatherlink.com 1.10,2013-09-07 12:27:00,
2013-09-07 07:42:00,67.7,67.0,30.10,North,9,0.0,-999.0,97,-99.99,,,0.00,56,weatherlink.com 1.10,2013-09-07 12:42:00,
2013-09-07 07:57:00,68.0,67.0,30.10,North,9,0.0,-999.0,97,-99.99,,,0.00,79,weatherlink.com 1.10,2013-09-07 12:57:00,
2013-09-07 08:12:00,68.1,67.0,30.10,North,9,0.0,-999.0,97,-99.99,,,0.00,91,weatherlink.com 1.10,2013-09-07 13:12:00,
2013-09-07 08:27:00,68.7,68.0,30.09,North,9,0.0,-999.0,97,-99.99,,,0.00,181,weatherlink.com 1.10,2013-09-07 13:27:00,
2013-09-07 08:43:00,69.4,69.0,30.10,North,9,0.0,-999.0,97,-99.99,,,0.00,79,weatherlink.com 1.10,2013-09-07 13:43:00,
2013-09-07 08:58:00,69.7,69.0,30.10,North,9,0.0,-999.0,97,-99.99,,,0.00,204,weatherlink.com 1.10,2013-09-07 13:58:00,
2013-09-07 09:13:00,69.8,69.0,30.10,North,9,0.0,-999.0,97,-99.99,,,0.00,362,weatherlink.com 1.10,2013-09-07 14:13:00,
2013-09-07 09:28:00,70.7,70.0,30.10,North,9,0.0,-999.0,97,-99.99,,,0.00,408,weatherlink.com 1.10,2013-09-07 14:28:00,
2013-09-07 09:43:00,71.8,71.0,30.10,North,9,0.0,-999.0,97,-99.99,,,0.00,452,weatherlink.com 1.10,2013-09-07 14:43:00,
2013-09-07 09:58:00,72.9,71.0,30.10,North,9,0.0,-999.0,94,-99.99,,,0.00,494,weatherlink.com 1.10,2013-09-07 14:58:00,
2013-09-07 10:13:00,74.1,71.0,30.10,North,9,0.0,-999.0,91,-99.99,,,0.00,536,weatherlink.com 1.10,2013-09-07 15:13:00,
2013-09-07 10:28:00,75.8,72.0,30.10,North,9,0.0,-999.0,88,-99.99,,,0.00,578,weatherlink.com 1.10,2013-09-07 15:28:00,
2013-09-07 10:43:00,76.7,72.0,30.10,North,9,0.0,-999.0,85,-99.99,,,0.00,606,weatherlink.com 1.10,2013-09-07 15:43:00,
2013-09-07 10:58:00,77.6,72.0,30.10,North,9,0.0,-999.0,83,-99.99,,,0.00,645,weatherlink.com 1.10,2013-09-07 15:58:00,
2013-09-07 11:13:00,79.4,72.0,30.10,North,9,0.0,-999.0,79,-99.99,,,0.00,680,weatherlink.com 1.10,2013-09-07 16:13:00,
2013-09-07 11:28:00,82.0,73.0,30.10,North,9,0.0,-999.0,73,-99.99,,,0.00,703,weatherlink.com 1.10,2013-09-07 16:28:00,
2013-09-07 11:44:00,83.6,72.0,30.10,North,9,0.0,-999.0,68,-99.99,,,0.00,726,weatherlink.com 1.10,2013-09-07 16:44:00,
2013-09-07 11:59:00,85.7,69.0,30.10,North,9,0.0,-999.0,58,-99.99,,,0.00,745,weatherlink.com 1.10,2013-09-07 16:59:00,
2013-09-07 12:14:00,86.9,70.0,30.09,North,9,1.0,-999.0,57,-99.99,,,0.00,772,weatherlink.com 1.10,2013-09-07 17:14:00,
2013-09-07 12:29:00,88.5,71.0,30.08,North,9,0.0,-999.0,57,-99.99,,,0.00,786,weatherlink.com 1.10,2013-09-07 17:29:00,
2013-09-07 12:44:00,89.0,70.0,30.08,North,9,0.0,-999.0,54,-99.99,,,0.00,796,weatherlink.com 1.10,2013-09-07 17:44:00,
2013-09-07 12:59:00,89.3,70.0,30.07,North,9,0.0,-999.0,53,-99.99,,,0.00,795,weatherlink.com 1.10,2013-09-07 17:59:00,
2013-09-07 13:14:00,89.9,69.0,30.07,North,9,0.0,-999.0,51,-99.99,,,0.00,802,weatherlink.com 1.10,2013-09-07 18:14:00,
2013-09-07 13:29:00,90.7,68.0,30.06,NNW,331,5.0,-999.0,48,-99.99,,,0.00,802,weatherlink.com 1.10,2013-09-07 18:29:00,
2013-09-07 13:44:00,90.5,66.0,30.06,NNW,331,4.0,-999.0,44,-99.99,,,0.00,791,weatherlink.com 1.10,2013-09-07 18:44:00,
2013-09-07 13:59:00,91.3,67.0,30.05,NW,314,0.0,-999.0,45,-99.99,,,0.00,722,weatherlink.com 1.10,2013-09-07 18:59:00,
2013-09-07 14:14:00,91.9,68.0,30.04,NW,314,0.0,-999.0,46,-99.99,,,0.00,773,weatherlink.com 1.10,2013-09-07 19:14:00,
2013-09-07 14:29:00,91.5,67.0,30.03,NW,314,0.0,-999.0,44,-99.99,,,0.00,701,weatherlink.com 1.10,2013-09-07 19:29:00,
2013-09-07 14:44:00,91.3,66.0,30.03,NW,314,2.0,-999.0,43,-99.99,,,0.00,700,weatherlink.com 1.10,2013-09-07 19:44:00,
2013-09-07 14:59:00,91.0,67.0,30.02,NW,314,0.0,-999.0,45,-99.99,,,0.00,666,weatherlink.com 1.10,2013-09-07 19:59:00,
2013-09-07 15:14:00,92.3,65.0,30.02,NW,314,0.0,-999.0,41,-99.99,,,0.00,659,weatherlink.com 1.10,2013-09-07 20:14:00,
2013-09-07 15:29:00,93.6,67.0,30.02,NW,314,0.0,-999.0,42,-99.99,,,0.00,654,weatherlink.com 1.10,2013-09-07 20:29:00,
2013-09-07 15:44:00,93.8,66.0,30.01,NW,314,5.0,-999.0,40,-99.99,,,0.00,571,weatherlink.com 1.10,2013-09-07 20:44:00,
2013-09-07 15:59:00,93.7,66.0,30.01,NW,314,0.0,-999.0,40,-99.99,,,0.00,564,weatherlink.com 1.10,2013-09-07 20:59:00,
2013-09-07 16:14:00,93.1,66.0,30.00,NW,314,2.0,-999.0,41,-99.99,,,0.00,536,weatherlink.com 1.10,2013-09-07 21:14:00,
2013-09-07 16:29:00,94.0,65.0,29.99,NW,314,0.0,-999.0,39,-99.99,,,0.00,496,weatherlink.com 1.10,2013-09-07 21:29:00,
2013-09-07 16:44:00,93.4,66.0,29.99,NW,314,0.0,-999.0,40,-99.99,,,0.00,459,weatherlink.com 1.10,2013-09-07 21:44:00,
2013-09-07 16:59:00,93.4,67.0,29.98,NW,314,0.0,-999.0,42,-99.99,,,0.00,345,weatherlink.com 1.10,2013-09-07 21:59:00,
2013-09-07 17:14:00,93.7,67.0,29.99,NW,314,0.0,-999.0,42,-99.99,,,0.00,204,weatherlink.com 1.10,2013-09-07 22:14:00,
2013-09-07 17:29:00,93.0,67.0,29.98,NW,314,0.0,-999.0,43,-99.99,,,0.00,295,weatherlink.com 1.10,2013-09-07 22:29:00,
2013-09-07 17:44:00,92.7,68.0,29.98,NW,314,0.0,-999.0,44,-99.99,,,0.00,244,weatherlink.com 1.10,2013-09-07 22:44:00,
2013-09-07 17:59:00,91.8,67.0,29.98,NW,314,2.0,-999.0,44,-99.99,,,0.00,179,weatherlink.com 1.10,2013-09-07 22:59:00,
2013-09-07 18:14:00,90.7,68.0,29.98,NW,314,0.0,-999.0,48,-99.99,,,0.00,56,weatherlink.com 1.10,2013-09-07 23:14:00,
2013-09-07 18:29:00,90.6,69.0,29.97,NW,314,0.0,-999.0,50,-99.99,,,0.00,46,weatherlink.com 1.10,2013-09-07 23:29:00,
2013-09-07 18:44:00,91.2,69.0,29.98,NW,314,0.0,-999.0,48,-99.99,,,0.00,33,weatherlink.com 1.10,2013-09-07 23:44:00,
2013-09-07 18:59:00,89.0,69.0,29.98,NW,314,0.0,-999.0,51,-99.99,,,0.00,21,weatherlink.com 1.10,2013-09-07 23:59:00,
2013-09-07 19:14:00,87.0,68.0,29.98,NW,314,0.0,-999.0,54,-99.99,,,0.00,11,weatherlink.com 1.10,2013-09-08 00:14:00,
2013-09-07 19:30:00,85.9,67.0,29.98,NW,314,0.0,-999.0,54,-99.99,,,0.00,0,weatherlink.com 1.10,2013-09-08 00:30:00,
2013-09-07 19:45:00,85.2,67.0,29.99,NW,314,0.0,-999.0,55,-99.99,,,0.00,0,weatherlink.com 1.10,2013-09-08 00:45:00,
2013-09-07 20:00:00,84.4,67.0,29.98,NW,314,0.0,-999.0,57,-99.99,,,0.00,0,weatherlink.com 1.10,2013-09-08 01:00:00,
2013-09-07 20:15:00,83.4,67.0,29.98,NW,314,0.0,-999.0,59,-99.99,,,0.00,0,weatherlink.com 1.10,2013-09-08 01:15:00,
2013-09-07 20:30:00,82.8,68.0,29.98,NW,314,0.0,-999.0,61,-99.99,,,0.00,0,weatherlink.com 1.10,2013-09-08 01:30:00,
2013-09-07 20:45:00,82.2,68.0,29.99,NW,314,0.0,-999.0,63,-99.99,,,0.00,0,weatherlink.com 1.10,2013-09-08 01:45:00,
2013-09-07 21:00:00,81.6,69.0,29.99,NW,314,0.0,-999.0,65,-99.99,,,0.00,0,weatherlink.com 1.10,2013-09-08 02:00:00,
2013-09-07 21:15:00,81.0,69.0,30.00,NW,314,0.0,-999.0,67,-99.99,,,0.00,0,weatherlink.com 1.10,2013-09-08 02:15:00,
2013-09-07 21:30:00,80.3,73.0,30.00,NW,314,0.0,-999.0,77,-99.99,,,0.00,0,weatherlink.com 1.10,2013-09-08 02:30:00,
2013-09-07 21:45:00,79.4,72.0,30.01,NW,314,0.0,-999.0,77,-99.99,,,0.00,0,weatherlink.com 1.10,2013-09-08 02:45:00,
2013-09-07 22:00:00,78.6,71.0,30.01,NW,314,0.0,-999.0,77,-99.99,,,0.00,0,weatherlink.com 1.10,2013-09-08 03:00:00,
2013-09-07 22:15:00,78.2,71.0,30.01,NW,314,0.0,-999.0,78,-99.99,,,0.00,0,weatherlink.com 1.10,2013-09-08 03:15:00,
2013-09-07 22:30:00,77.7,71.0,30.01,NW,314,0.0,-999.0,79,-99.99,,,0.00,0,weatherlink.com 1.10,2013-09-08 03:30:00,
2013-09-07 22:45:00,77.1,71.0,30.01,NW,314,0.0,-999.0,81,-99.99,,,0.00,0,weatherlink.com 1.10,2013-09-08 03:45:00,
2013-09-07 23:00:00,76.7,71.0,30.01,NW,314,0.0,-999.0,83,-99.99,,,0.00,0,weatherlink.com 1.10,2013-09-08 04:00:00,
2013-09-07 23:15:00,76.4,71.0,30.00,NW,314,0.0,-999.0,83,-99.99,,,0.00,0,weatherlink.com 1.10,2013-09-08 04:15:00,
2013-09-07 23:30:00,76.1,71.0,30.00,NW,314,0.0,-999.0,85,-99.99,,,0.00,0,weatherlink.com 1.10,2013-09-08 04:30:00,
2013-09-07 23:45:00,75.8,72.0,30.00,NW,314,0.0,-999.0,87,-99.99,,,0.00,0,weatherlink.com 1.10,2013-09-08 04:45:00,